Torna al catalogo

SDA_1675

AttivoMilitarePO
NORAD 65985·PAYLOAD·🇺🇸 United States

Lanciato Oct 15, 2025 da Vandenberg Space Force Base

Loading…

Prossimi Passaggi (prossime 24 ore)

TLE

AggiornatoSource: Space-Track

Epoca: Sep 14, 2026, 14:32 UTC

1 65985U 25230M   26257.60563261  .00000138  00000-0  11236-3 0  9994
2 65985  81.2973 128.7797 0002065 292.5884  67.5055 13.84769451 46182

Traccia SDA_1675 in tempo reale con AllMySat

Download on the App Store